When you browse on this site, cookies collect data to enhance your experience and personalize the content and advertising you see.
Visit our Privacy Policy to learn more. By continuing to use the site, you agree to this use of cookies and data.
  • In Hungary
  • List of Countries
  • For 7 days
  • Water Temperature
  • Weather Map
  • News
  • Weather Widgets
  • user-avatar
    Login

    Hourly Weather Troick

    Today, 29 May, Friday

    Time Temperature Precipitation Wind Pressure Humidity
    00:00 +19°C° 0 mm 5 mps 750 mmHg 83%
    01:00 +16°C° 0 mm 5 mps 750 mmHg 85%
    02:00 +16°C° 0 mm 5 mps 750 mmHg 84%
    03:00 +15°C° 0 mm 5 mps 750 mmHg 82%
    04:00 +14°C° 0 mm 5 mps 750 mmHg 77%
    05:00 +15°C° 0 mm 6 mps 750 mmHg 76%
    06:00 +15°C° 0 mm 6 mps 750 mmHg 75%
    07:00 +16°C° 0 mm 6 mps 750 mmHg 73%
    08:00 +19°C° 0 mm 6 mps 750 mmHg 71%
    09:00 +21°C° 0 mm 6 mps 750 mmHg 68%
    10:00 +23°C° 0 mm 6 mps 750 mmHg 63%
    11:00 +26°C° 0 mm 6 mps 750 mmHg 60%
    12:00 +27°C° 0 mm 6 mps 750 mmHg 56%
    13:00 +28°C° 0 mm 6 mps 750 mmHg 52%
    14:00 +29°C° 0 mm 6 mps 750 mmHg 52%
    15:00 +29°C° 0 mm 6 mps 750 mmHg 51%
    16:00 +29°C° 0 mm 6 mps 749 mmHg 50%
    17:00 +29°C° 0 mm 6 mps 749 mmHg 54%
    18:00 +28°C° 0 mm 5 mps 749 mmHg 57%
    19:00 +27°C° 0 mm 4 mps 749 mmHg 60%
    20:00 +25°C° 0 mm 4 mps 749 mmHg 65%
    21:00 +23°C° 0 mm 4 mps 749 mmHg 70%
    22:00 +21°C° 0 mm 4 mps 749 mmHg 75%
    23:00 +21°C° 0 mm 4 mps 749 mmHg 77%

    Tomorrow, 30 May, Saturday

    Time Temperature Precipitation Wind Pressure Humidity
    00:00 +20°C° 0 mm 5 mps 749 mmHg 78%
    01:00 +20°C° 0 mm 5 mps 749 mmHg 79%
    02:00 +19°C° 0 mm 5 mps 749 mmHg 78%
    03:00 +17°C° 0 mm 5 mps 749 mmHg 78%
    04:00 +17°C° 0 mm 5 mps 749 mmHg 77%
    05:00 +17°C° 0 mm 5 mps 749 mmHg 73%
    06:00 +19°C° 0 mm 5 mps 748 mmHg 70%
    07:00 +20°C° 0 mm 6 mps 748 mmHg 66%
    08:00 +22°C° 0 mm 6 mps 748 mmHg 61%
    09:00 +25°C° 0 mm 5 mps 748 mmHg 56%
    10:00 +27°C° 0 mm 5 mps 748 mmHg 51%
    11:00 +29°C° 0 mm 5 mps 748 mmHg 47%
    12:00 +30°C° 0 mm 5 mps 747 mmHg 43%
    13:00 +33°C° 0 mm 4 mps 747 mmHg 39%
    14:00 +33°C° 0 mm 4 mps 747 mmHg 36%
    15:00 +34°C° 0 mm 4 mps 746 mmHg 33%
    16:00 +35°C° 0 mm 3 mps 746 mmHg 30%
    17:00 +34°C° 0 mm 3 mps 746 mmHg 33%
    18:00 +33°C° 0 mm 3 mps 745 mmHg 37%
    19:00 +31°C° 0 mm 3 mps 745 mmHg 40%
    20:00 +30°C° 0 mm 4 mps 745 mmHg 43%
    21:00 +28°C° 0 mm 4 mps 744 mmHg 46%
    22:00 +27°C° 0 mm 4 mps 744 mmHg 49%
    23:00 +27°C° 0 mm 5 mps 744 mmHg 47%

    Day after tomorrow, 31 May, Sunday

    Time Temperature Precipitation Wind Pressure Humidity
    00:00 +27°C° 0 mm 5 mps 744 mmHg 46%
    01:00 +26°C° 0 mm 6 mps 743 mmHg 44%
    02:00 +24°C° 0 mm 6 mps 743 mmHg 48%
    03:00 +23°C° 0 mm 6 mps 743 mmHg 52%
    04:00 +22°C° 0 mm 6 mps 743 mmHg 55%
    05:00 +22°C° 0 mm 6 mps 743 mmHg 62%
    06:00 +22°C° 0 mm 7 mps 743 mmHg 69%
    07:00 +22°C° 0 mm 7 mps 743 mmHg 76%
    08:00 +23°C° 0 mm 7 mps 744 mmHg 70%
    09:00 +24°C° 0 mm 8 mps 744 mmHg 64%
    10:00 +26°C° 0 mm 8 mps 745 mmHg 59%
    11:00 +27°C° 0 mm 8 mps 745 mmHg 52%
    12:00 +27°C° 0 mm 8 mps 745 mmHg 46%
    13:00 +28°C° 0 mm 8 mps 745 mmHg 40%
    14:00 +28°C° 0 mm 8 mps 746 mmHg 39%
    15:00 +28°C° 0 mm 7 mps 746 mmHg 37%
    16:00 +28°C° 0 mm 7 mps 746 mmHg 36%
    17:00 +27°C° 0 mm 6 mps 746 mmHg 40%
    18:00 +26°C° 0 mm 5 mps 746 mmHg 43%
    19:00 +26°C° 0 mm 5 mps 746 mmHg 46%
    20:00 +23°C° 0 mm 5 mps 746 mmHg 48%
    21:00 +22°C° 0 mm 4 mps 746 mmHg 51%
    22:00 +21°C° 0 mm 4 mps 747 mmHg 53%
    23:00 +20°C° 0 mm 4 mps 747 mmHg 55%

    1 June, Monday

    Time Temperature Precipitation Wind Pressure Humidity
    00:00 +19°C° 0 mm 4 mps 747 mmHg 57%
    01:00 +19°C° 0 mm 4 mps 747 mmHg 59%
    02:00 +18°C° 0 mm 3 mps 747 mmHg 63%
    03:00 +17°C° 0 mm 3 mps 747 mmHg 66%
    04:00 +17°C° 0 mm 2 mps 747 mmHg 69%
    05:00 +18°C° 0 mm 2 mps 747 mmHg 66%
    06:00 +19°C° 0 mm 2 mps 747 mmHg 63%
    07:00 +20°C° 0 mm 3 mps 747 mmHg 60%
    08:00 +21°C° 0 mm 3 mps 747 mmHg 55%
    09:00 +23°C° 0 mm 2 mps 748 mmHg 49%
    10:00 +24°C° 0 mm 2 mps 748 mmHg 44%
    11:00 +25°C° 0 mm 3 mps 748 mmHg 40%
    12:00 +26°C° 0 mm 3 mps 748 mmHg 36%
    13:00 +27°C° 0 mm 3 mps 748 mmHg 33%
    14:00 +27°C° 0 mm 3 mps 747 mmHg 32%
    15:00 +27°C° 0 mm 3 mps 747 mmHg 31%
    16:00 +28°C° 0 mm 3 mps 747 mmHg 30%
    17:00 +27°C° 0 mm 3 mps 747 mmHg 34%
    18:00 +27°C° 0 mm 3 mps 747 mmHg 37%
    19:00 +26°C° 0 mm 2 mps 747 mmHg 40%
    20:00 +24°C° 0 mm 2 mps 747 mmHg 44%
    21:00 +23°C° 0 mm 2 mps 747 mmHg 47%
    22:00 +20°C° 0 mm 2 mps 747 mmHg 51%
    23:00 +19°C° 0 mm 2 mps 747 mmHg 53%

    2 June, Tuesday

    Time Temperature Precipitation Wind Pressure Humidity
    00:00 +19°C° 0 mm 2 mps 747 mmHg 55%
    01:00 +19°C° 0 mm 1 mps 747 mmHg 56%
    02:00 +18°C° 0 mm 2 mps 747 mmHg 56%
    03:00 +18°C° 0 mm 2 mps 747 mmHg 57%
    04:00 +17°C° 0 mm 2 mps 747 mmHg 57%
    05:00 +19°C° 0 mm 2 mps 747 mmHg 54%
    06:00 +20°C° 0 mm 2 mps 747 mmHg 51%
    07:00 +22°C° 0 mm 3 mps 747 mmHg 48%
    08:00 +24°C° 0 mm 3 mps 747 mmHg 43%
    09:00 +26°C° 0 mm 3 mps 747 mmHg 38%
    10:00 +27°C° 0 mm 3 mps 747 mmHg 34%
    11:00 +28°C° 0 mm 3 mps 747 mmHg 31%
    12:00 +29°C° 0 mm 3 mps 746 mmHg 29%
    13:00 +30°C° 0 mm 3 mps 746 mmHg 27%
    14:00 +30°C° 0 mm 4 mps 746 mmHg 26%
    15:00 +32°C° 0 mm 4 mps 745 mmHg 26%
    16:00 +32°C° 0 mm 4 mps 745 mmHg 26%
    17:00 +30°C° 0 mm 4 mps 745 mmHg 30%
    18:00 +29°C° 0 mm 4 mps 744 mmHg 34%
    19:00 +28°C° 0 mm 4 mps 744 mmHg 38%
    20:00 +26°C° 0.1 mm 4 mps 744 mmHg 42%
    21:00 +25°C° 0.1 mm 5 mps 743 mmHg 45%
    22:00 +23°C° 0.1 mm 5 mps 743 mmHg 48%
    23:00 +22°C° 0.7 mm 5 mps 743 mmHg 54%

    3 June, Wednesday

    Time Temperature Precipitation Wind Pressure Humidity
    00:00 +21°C° 0.7 mm 5 mps 742 mmHg 59%
    01:00 +20°C° 0.7 mm 5 mps 742 mmHg 65%
    02:00 +19°C° 1.9 mm 4 mps 742 mmHg 70%
    03:00 +19°C° 1.9 mm 4 mps 742 mmHg 75%
    04:00 +18°C° 1.9 mm 3 mps 741 mmHg 80%
    05:00 +20°C° 0.6 mm 3 mps 742 mmHg 76%
    06:00 +21°C° 0.6 mm 3 mps 742 mmHg 72%
    07:00 +22°C° 0.6 mm 3 mps 742 mmHg 69%
    08:00 +23°C° 0 mm 4 mps 742 mmHg 66%
    09:00 +26°C° 0 mm 5 mps 742 mmHg 62%
    10:00 +27°C° 0 mm 5 mps 742 mmHg 59%
    11:00 +27°C° 0 mm 6 mps 743 mmHg 57%
    12:00 +28°C° 0 mm 6 mps 743 mmHg 55%
    13:00 +28°C° 0 mm 7 mps 743 mmHg 53%
    14:00 +29°C° 0 mm 7 mps 744 mmHg 51%
    15:00 +29°C° 0 mm 7 mps 744 mmHg 49%
    16:00 +29°C° 0 mm 6 mps 744 mmHg 47%
    17:00 +28°C° 0 mm 6 mps 744 mmHg 50%
    18:00 +27°C° 0 mm 5 mps 745 mmHg 53%
    19:00 +26°C° 0 mm 4 mps 745 mmHg 56%
    20:00 +25°C° 0 mm 4 mps 746 mmHg 60%
    21:00 +22°C° 0 mm 3 mps 746 mmHg 64%
    22:00 +21°C° 0 mm 3 mps 746 mmHg 67%
    23:00 +20°C° 0 mm 3 mps 746 mmHg 70%
    Show more